Wind_Speed
42 42 43 43 43 43 42 42 42 42 42 42 42 42 42 41 41 41 40 39 38 38 37 37 37 36 35 35 34 33 33 33 33 32 32 31 31 30 30 29 29 29 29
42 43 44 44 45 45 45 45 45 45 45 45 45 44 44 43 43 43 43 42 41 40 39 40 39 38 37 37 36 35 34 34 33 33 33 33 33 32 31 31 30 30 30
44 44 45 45 46 47 47 47 47 46 46 46 47 47 46 45 45 44 44 44 44 43 42 41 41 40 39 38 38 37 37 36 35 35 35 34 34 34 33 32 32 31 31
45 45 46 46 47 48 48 48 48 48 47 47 47 48 47 47 46 46 45 45 45 45 44 42 41 42 42 40 40 39 39 38 38 37 37 36 36 36 35 34 33 33 32
44 45 46 46 47 48 48 48 48 48 48 48 47 48 48 48 48 47 47 47 46 46 45 44 43 43 43 43 42 41 41 40 39 39 39 38 38 37 36 35 35 34 34
44 45 45 46 47 48 47 47 48 48 48 48 48 47 47 47 47 47 48 48 48 47 47 47 46 45 44 44 44 43 41 41 40 40 40 40 40 39 38 37 36 36 35
44 44 44 44 45 46 46 46 47 48 48 48 48 49 48 48 48 48 49 50 49 50 49 48 48 47 45 45 45 45 44 43 42 42 42 42 42 41 39 38 37 37 36
42 43 43 43 44 44 44 45 46 47 47 47 48 48 49 49 49 49 50 49 49 50 49 48 49 49 48 47 47 47 47 46 45 45 45 43 43 43 41 40 39 38 38
41 42 43 43 43 43 44 44 46 47 47 46 47 48 49 49 48 48 48 48 49 49 49 50 50 51 51 51 50 49 48 48 47 46 46 45 44 44 44 43 42 40 39
40 41 42 43 43 43 43 43 44 44 45 45 46 48 49 50 50 47 48 49 49 50 50 51 51 51 52 53 52 52 51 50 48 48 47 46 47 45 45 44 43 43 41
39 40 40 41 42 42 42 42 43 43 44 44 44 46 46 47 49 49 47 48 48 48 50 51 51 51 52 52 52 52 52 51 50 50 49 48 47 47 47 46 45 45 44
37 38 38 38 39 39 40 41 41 41 42 44 44 45 45 45 46 46 45 45 46 46 48 50 51 51 51 52 52 51 52 52 51 51 51 50 48 47 47 48 47 47 46
34 34 34 34 35 37 38 38 39 39 40 40 42 43 44 43 43 44 44 43 45 45 46 47 49 51 51 51 52 52 52 52 51 50 51 51 51 50 49 49 48 48 48
32 32 32 33 33 34 34 35 37 37 38 38 40 41 43 43 43 44 44 44 45 46 47 48 49 50 52 52 53 53 52 52 52 52 52 53 52 52 52 51 50 49 49
31 32 32 33 33 34 34 34 35 36 37 38 39 40 42 43 45 45 45 45 46 46 47 49 50 51 52 54 55 55 54 53 53 54 54 54 54 53 53 52 53 53 51
29 30 31 31 32 32 33 34 34 35 36 36 38 39 41 42 43 44 45 45 47 48 48 49 50 52 53 54 55 56 57 57 56 55 56 56 55 55 54 53 53 54 53
30 31 31 31 31 32 32 33 33 34 34 36 37 38 40 42 43 44 45 46 47 47 48 48 49 51 52 53 54 55 57 57 57 56 56 56 57 57 56 56 56 55 54
29 30 31 31 31 32 32 33 33 34 35 36 37 38 40 41 43 45 46 46 47 48 48 48 48 50 51 53 54 55 55 56 57 56 56 57 58 58 58 58 57 57 56
30 30 31 32 32 32 32 33 34 35 36 36 37 39 40 41 43 44 45 46 47 48 49 49 50 50 51 51 52 53 55 56 58 58 59 59 58 58 59 59 59 58 58
30 31 31 31 31 32 32 33 34 34 36 37 38 38 39 41 42 43 45 46 47 48 49 50 50 51 52 52 53 54 55 56 58 60 60 60 60 60 61 62 61 61 61
30 31 31 31 32 32 33 34 35 36 37 38 38 39 41 41 42 43 44 46 47 48 50 51 52 53 54 54 55 55 56 57 58 60 61 61 61 62 62 63 64 63 64
31 31 31 32 33 34 34 35 36 37 37 38 39 40 41 42 43 44 45 47 48 49 51 53 54 55 56 57 57 58 58 58 59 60 61 61 62 63 64 64 64 64 64
32 32 33 34 35 35 36 36 37 38 39 40 41 42 42 43 44 45 46 47 49 50 52 53 55 56 57 58 59 59 60 60 60 62 63 63 63 63 65 66 66 65 64
32 33 34 35 36 36 37 38 39 40 41 42 43 43 44 45 45 46 48 49 51 53 54 55 56 57 58 59 60 61 62 62 62 63 64 64 64 65 64 65 66 68 68
33 34 35 36 37 37 38 39 40 42 43 44 45 45 46 46 47 48 48 50 52 53 55 56 57 58 58 59 60 60 61 62 62 62 64 64 64 65 64 64 65 66 68
35 36 36 37 38 39 40 41 42 43 44 45 46 47 47 47 48 49 50 51 52 53 54 55 57 57 58 58 59 59 60 61 62 61 62 63 63 63 63 62 63 65 67
Wind_Direction
272 272 271 271 271 270 270 270 270 269 269 270 269 269 270 270 268 267 267 267 268 267 267 268 268 268 268 269 269 269 269 269 269 269 269 270 270 271 273 275 276 278 280
271 272 272 271 271 270 269 269 269 269 269 269 268 268 268 268 268 268 267 267 266 266 267 267 268 267 267 268 268 268 268 268 269 269 270 270 270 270 272 274 275 277 278
273 272 272 271 271 270 270 269 269 269 269 268 267 266 266 266 266 267 267 267 265 265 267 267 267 266 266 266 267 267 267 267 268 269 269 269 270 270 271 273 274 275 276
274 273 272 272 270 270 270 269 268 269 269 269 268 265 264 264 264 264 265 266 266 265 265 266 266 266 265 265 265 265 265 266 267 267 268 269 269 270 270 271 272 273 274
274 274 274 273 271 270 270 269 268 269 269 269 268 266 263 262 262 263 264 264 264 264 264 265 265 265 265 265 265 265 264 265 266 267 268 268 268 268 269 270 271 272 272
276 276 276 274 273 271 270 270 269 269 269 269 267 266 264 262 262 264 264 263 263 263 263 264 265 266 266 266 266 266 264 264 265 267 268 267 267 266 267 267 269 270 271
278 277 276 274 274 272 271 270 269 269 269 268 267 266 264 263 264 263 263 262 261 261 261 262 263 265 265 264 264 264 263 263 264 266 266 266 266 265 266 266 268 269 269
278 277 276 275 274 273 272 271 270 269 269 269 268 267 264 263 264 263 262 261 261 261 261 263 263 263 263 262 263 262 263 264 265 265 264 263 264 263 264 265 266 266 267
280 278 277 275 274 273 272 272 271 269 269 270 269 268 267 264 262 262 262 263 263 263 262 263 264 264 262 262 261 261 263 264 263 264 262 261 261 262 263 264 264 265 265
281 280 278 277 275 274 273 272 272 271 268 268 269 267 267 265 262 264 264 263 263 263 262 263 263 262 262 263 263 264 263 265 263 262 262 261 261 262 263 263 263 262 262
283 282 281 278 277 276 274 272 271 271 269 268 267 267 267 266 264 265 264 262 261 262 262 261 260 261 262 263 263 264 264 264 264 263 262 263 263 262 262 262 262 261 262
285 284 283 281 280 279 277 275 273 272 271 270 268 266 266 267 268 267 267 264 262 262 263 262 261 260 261 261 262 263 263 263 263 262 262 262 262 261 261 260 260 260 260
287 286 286 284 283 281 279 277 275 273 273 271 270 267 265 266 268 268 269 267 264 263 265 265 264 262 263 263 263 263 263 263 262 261 262 262 261 259 259 259 258 259 258
287 288 288 287 285 283 282 280 276 275 274 272 270 268 266 267 271 271 271 270 269 268 267 267 267 266 265 265 265 265 264 263 261 261 260 260 260 259 258 257 257 258 257
289 288 289 289 287 286 283 281 279 277 276 274 272 271 269 269 271 272 273 271 271 270 269 269 269 269 268 266 266 265 264 262 263 262 261 260 259 259 258 257 257 257 256
290 291 292 292 290 289 286 283 281 280 279 277 275 273 272 272 273 273 273 272 272 271 271 270 269 269 268 268 267 266 264 263 262 261 260 259 260 259 258 258 258 258 256
291 292 293 293 292 290 289 287 286 284 283 280 277 275 275 274 274 273 274 273 274 273 272 272 271 269 269 269 268 267 266 264 263 262 260 259 258 258 258 258 258 256 255
294 294 295 295 294 293 291 289 288 286 285 284 282 281 279 278 276 275 275 274 274 274 273 272 272 272 271 270 269 267 267 266 264 263 261 260 259 258 257 257 256 255 254
295 296 297 297 297 295 294 293 291 290 289 288 286 284 283 281 280 279 278 277 276 275 274 274 274 274 273 271 270 268 268 267 264 263 262 262 260 259 259 257 254 254 254
295 296 297 297 297 296 295 294 294 293 292 291 290 288 286 284 283 281 280 279 279 278 277 276 275 275 274 273 272 271 269 268 265 264 263 263 262 260 259 258 255 254 253
296 297 297 298 298 298 297 296 296 296 295 294 292 291 289 287 285 283 282 281 281 280 279 278 277 276 275 275 274 273 271 269 268 266 264 263 262 260 259 258 256 255 254
296 297 297 297 297 297 297 297 297 297 297 296 295 294 292 290 287 285 284 284 283 282 282 281 280 278 277 276 275 274 272 271 269 267 265 264 263 261 259 257 256 254 253
297 297 298 299 299 298 298 298 298 298 298 298 297 295 294 293 291 289 287 286 286 286 285 283 282 281 280 278 276 275 273 272 270 268 266 265 264 262 259 257 255 253 252
298 298 299 299 300 299 299 299 299 299 299 299 298 297 296 295 293 291 290 289 288 288 287 285 284 283 282 281 279 276 274 272 271 270 268 266 264 262 259 257 255 253 251
298 298 299 300 300 300 300 300 301 301 300 299 298 298 297 296 295 294 293 292 291 290 289 288 287 286 284 283 280 278 276 274 273 271 269 267 265 262 258 256 255 253 252
299 299 299 300 300 300 300 301 302 302 301 301 300 299 298 297 296 296 295 295 293 292 290 289 288 287 286 284 282 280 278 276 275 273 271 269 266 263 259 257 255 253 251
Height
5799 5799 5799 5799 5799 5800 5800 5801 5801 5801 5802 5802 5803 5804 5804 5805 5806 5806 5807 5808 5809 5809 5810 5810 5811 5811 5812 5812 5813 5813 5814 5814 5815 5815 5815 5815 5816 5816 5816 5817 5817 5817 5817
5789 5789 5789 5789 5789 5789 5790 5790 5791 5791 5792 5792 5793 5794 5794 5795 5796 5797 5798 5799 5800 5800 5801 5802 5802 5803 5804 5804 5805 5805 5806 5806 5807 5807 5808 5808 5809 5809 5810 5810 5810 5810 5810
5779 5779 5779 5779 5778 5778 5779 5779 5780 5780 5781 5781 5782 5783 5784 5785 5785 5786 5787 5788 5789 5791 5791 5792 5793 5794 5795 5796 5796 5797 5798 5798 5799 5799 5800 5800 5801 5802 5802 5802 5803 5803 5803
5769 5769 5768 5768 5767 5767 5767 5768 5769 5769 5770 5770 5770 5771 5772 5773 5774 5776 5777 5777 5779 5780 5781 5782 5783 5784 5785 5786 5787 5788 5789 5789 5790 5791 5792 5792 5793 5793 5794 5795 5795 5796 5796
5758 5758 5757 5757 5756 5756 5756 5756 5756 5757 5758 5758 5758 5758 5760 5761 5763 5764 5766 5767 5768 5769 5770 5771 5772 5773 5775 5776 5777 5779 5779 5780 5781 5782 5782 5783 5784 5785 5786 5786 5787 5788 5788
5748 5747 5746 5746 5745 5744 5744 5744 5745 5745 5745 5745 5745 5746 5748 5749 5751 5753 5754 5755 5756 5757 5759 5760 5761 5762 5764 5765 5767 5768 5769 5770 5771 5772 5773 5774 5775 5776 5777 5778 5779 5779 5780
5737 5736 5735 5734 5733 5733 5733 5733 5733 5733 5733 5733 5733 5735 5736 5738 5739 5741 5742 5743 5745 5746 5747 5748 5749 5751 5752 5754 5755 5757 5758 5760 5761 5762 5763 5764 5765 5766 5767 5768 5769 5770 5771
5726 5725 5724 5723 5722 5722 5721 5721 5721 5721 5721 5721 5721 5722 5724 5727 5728 5729 5730 5730 5732 5733 5735 5736 5738 5739 5740 5742 5744 5745 5747 5748 5750 5751 5752 5754 5755 5756 5757 5758 5760 5761 5762
5716 5714 5713 5712 5711 5711 5711 5710 5710 5710 5710 5709 5709 5710 5712 5714 5716 5718 5718 5718 5719 5721 5723 5724 5725 5727 5728 5729 5731 5733 5735 5736 5738 5740 5741 5743 5744 5745 5747 5748 5749 5751 5752
5706 5705 5703 5702 5701 5700 5700 5699 5699 5699 5699 5699 5698 5698 5699 5701 5703 5705 5706 5706 5707 5709 5710 5711 5712 5714 5715 5717 5718 5720 5722 5724 5726 5727 5729 5731 5733 5734 5735 5737 5738 5740 5742
5697 5695 5693 5691 5690 5689 5689 5688 5688 5688 5688 5688 5688 5688 5688 5689 5690 5692 5694 5695 5696 5696 5697 5698 5699 5700 5702 5703 5705 5707 5709 5711 5712 5715 5717 5718 5720 5722 5724 5725 5727 5729 5731
5688 5686 5684 5682 5681 5680 5679 5678 5678 5677 5677 5677 5678 5678 5678 5678 5679 5679 5681 5683 5684 5685 5685 5685 5686 5687 5688 5690 5692 5693 5695 5696 5699 5701 5703 5705 5707 5709 5711 5713 5715 5717 5719
5681 5679 5676 5674 5673 5671 5670 5669 5668 5668 5667 5667 5667 5668 5668 5668 5669 5669 5670 5671 5672 5673 5673 5673 5673 5674 5675 5676 5677 5679 5681 5682 5684 5686 5688 5691 5693 5695 5697 5700 5702 5704 5706
5674 5672 5670 5667 5665 5663 5661 5660 5659 5659 5658 5658 5658 5658 5658 5658 5658 5659 5659 5660 5660 5662 5661 5661 5661 5661 5661 5662 5663 5664 5666 5668 5670 5671 5673 5676 5679 5681 5683 5686 5688 5690 5693
5667 5665 5663 5660 5658 5656 5654 5652 5651 5650 5649 5648 5648 5648 5648 5648 5648 5648 5648 5648 5649 5649 5650 5649 5648 5648 5648 5648 5649 5650 5651 5653 5654 5656 5658 5661 5663 5666 5668 5671 5674 5676 5679
5660 5658 5655 5653 5650 5648 5646 5645 5643 5641 5640 5639 5639 5638 5638 5638 5638 5637 5637 5637 5636 5636 5637 5637 5636 5635 5634 5634 5634 5635 5636 5638 5639 5641 5643 5645 5647 5650 5653 5655 5658 5661 5663
5654 5651 5648 5646 5643 5641 5639 5637 5635 5633 5632 5631 5630 5629 5628 5628 5627 5626 5626 5625 5624 5623 5623 5623 5622 5621 5621 5620 5620 5620 5621 5622 5624 5625 5627 5629 5631 5633 5636 5639 5642 5644 5648
5647 5644 5641 5639 5636 5634 5632 5630 5628 5626 5624 5622 5621 5619 5618 5617 5616 5615 5613 5612 5611 5610 5610 5609 5609 5607 5606 5606 5605 5605 5605 5606 5607 5609 5610 5612 5614 5616 5618 5621 5624 5627 5631
5640 5637 5634 5632 5629 5627 5624 5622 5620 5618 5615 5613 5611 5610 5608 5606 5604 5603 5601 5599 5598 5597 5596 5595 5594 5593 5591 5590 5590 5589 5589 5590 5591 5592 5593 5595 5596 5598 5600 5602 5606 5609 5613
5633 5630 5627 5624 5622 5619 5616 5614 5611 5609 5607 5604 5602 5599 5597 5595 5592 5590 5588 5586 5584 5583 5581 5580 5579 5578 5576 5574 5573 5573 5573 5572 5573 5574 5575 5576 5577 5579 5581 5584 5587 5590 5593
5625 5623 5620 5617 5614 5611 5608 5606 5603 5600 5597 5594 5591 5588 5586 5583 5580 5578 5575 5573 5570 5568 5566 5565 5563 5562 5560 5557 5556 5555 5555 5555 5555 5554 5555 5556 5558 5560 5561 5564 5566 5569 5573
5618 5615 5612 5609 5606 5603 5600 5597 5594 5591 5588 5584 5581 5577 5574 5570 5567 5565 5562 5559 5556 5553 5551 5549 5546 5544 5542 5540 5538 5536 5535 5536 5537 5536 5535 5537 5537 5539 5540 5542 5545 5548 5552
5610 5608 5604 5601 5598 5594 5591 5588 5585 5581 5577 5574 5570 5566 5562 5558 5554 5551 5547 5544 5541 5537 5535 5532 5529 5526 5524 5521 5519 5517 5515 5514 5515 5513 5513 5516 5515 5516 5518 5520 5523 5526 5530
5602 5599 5596 5592 5589 5585 5581 5578 5574 5570 5566 5562 5558 5554 5549 5545 5541 5537 5534 5529 5525 5521 5517 5514 5511 5507 5504 5500 5497 5496 5494 5494 5493 5491 5489 5492 5493 5493 5496 5498 5500 5503 5507
5594 5590 5587 5583 5579 5575 5571 5567 5563 5559 5555 5550 5546 5541 5536 5532 5527 5523 5519 5515 5510 5505 5500 5495 5492 5487 5483 5479 5476 5474 5472 5471 5471 5470 5467 5467 5469 5469 5473 5476 5477 5480 5483
5585 5581 5577 5573 5569 5565 5561 5557 5552 5548 5544 5539 5533 5528 5523 5518 5513 5508 5503 5499 5494 5489 5483 5478 5473 5469 5464 5459 5455 5452 5450 5448 5447 5447 5445 5444 5444 5444 5449 5454 5454 5456 5460